{"data":{"norad_id":65872,"epoch":"2026-09-19T21:02:13.786080Z","epoch_age_seconds":159931,"freshness":"FRESH","line1":"1 65872U 25223U   26262.87654845  .00009516  00000+0  29236-3 0  9992","line2":"2 65872  53.1576 110.2729 0000794  83.7952 276.3141 15.34406526 53966","mean_motion":15.34406526,"eccentricity":7.94e-5,"inclination_deg":53.1576,"raan_deg":110.2729,"arg_perigee_deg":83.7952,"mean_anomaly_deg":276.3141,"bstar":0.00029236,"rev_number":5396,"period_min":93.84735893648,"perigee_km":462.14068245358,"apogee_km":463.22700480354,"semimajor_km":6840.8208436286,"source":"CELESTRAK","updated_at":"2026-09-21T09:00:35.752376Z"}}